Time,TemperatureF,DewpointF,PressureIn,WindDirection,WindDirectionDegrees,WindSpeedMPH,WindSpeedGustMPH,Humidity,HourlyPrecipIn,Conditions,Clouds,dailyrainin,SoftwareType,DateUTC
2013-01-31 00:17:00,52.7,52.2,29.48,SSW,202,4.7,-999.0,98,-99.99,,,0.00,Acu-Link.com,2013-01-31 05:17:00,
2013-01-31 00:33:00,52.2,51.6,29.48,East,90,9.4,-999.0,98,-99.99,,,0.00,Acu-Link.com,2013-01-31 05:33:00,
2013-01-31 00:48:00,53.2,52.7,29.46,ESE,112,7.8,-999.0,98,-99.99,,,0.00,Acu-Link.com,2013-01-31 05:48:00,
2013-01-31 01:03:00,54.3,53.8,29.45,South,180,11.0,-999.0,98,-99.99,,,0.00,Acu-Link.com,2013-01-31 06:03:00,
2013-01-31 01:18:00,54.9,54.3,29.42,SSE,157,9.4,-999.0,98,-99.99,,,0.00,Acu-Link.com,2013-01-31 06:18:00,
2013-01-31 01:33:00,55.0,54.5,29.41,SE,135,14.5,-999.0,98,-99.99,,,0.00,Acu-Link.com,2013-01-31 06:33:00,
2013-01-31 01:34:00,55.0,54.5,29.41,SE,135,14.5,-999.0,98,-99.99,,,0.00,Acu-Link.com,2013-01-31 06:34:00,
2013-01-31 01:49:00,55.4,54.8,29.40,SSE,157,7.8,-999.0,98,-99.99,,,0.00,Acu-Link.com,2013-01-31 06:49:00,
2013-01-31 02:04:00,55.2,54.7,29.40,SE,135,11.0,-999.0,98,-99.99,,,0.00,Acu-Link.com,2013-01-31 07:04:00,
2013-01-31 02:19:00,55.0,54.5,29.38,SSW,202,8.9,-999.0,98,-99.99,,,0.00,Acu-Link.com,2013-01-31 07:19:00,
2013-01-31 02:34:00,55.8,55.2,29.36,West,270,14.5,-999.0,98,-99.99,,,0.00,Acu-Link.com,2013-01-31 07:34:00,
2013-01-31 02:50:00,56.5,55.9,29.34,South,180,8.3,-999.0,98,-99.99,,,0.00,Acu-Link.com,2013-01-31 07:50:00,
2013-01-31 03:05:00,56.1,55.6,29.31,ESE,112,7.8,-999.0,98,-99.99,,,0.00,Acu-Link.com,2013-01-31 08:05:00,
2013-01-31 03:20:00,55.4,54.8,29.29,SSE,157,5.1,-999.0,98,-99.99,,,0.00,Acu-Link.com,2013-01-31 08:20:00,
2013-01-31 03:35:00,55.4,54.8,29.27,South,180,14.5,-999.0,98,-99.99,,,0.00,Acu-Link.com,2013-01-31 08:35:00,
2013-01-31 03:50:00,55.2,54.7,29.26,South,180,9.8,-999.0,98,-99.99,,,0.00,Acu-Link.com,2013-01-31 08:50:00,
2013-01-31 04:15:00,55.0,54.5,29.24,South,180,8.9,-999.0,98,-99.99,,,0.00,Acu-Link.com,2013-01-31 09:15:00,
2013-01-31 04:31:00,55.2,54.7,29.20,SSW,202,15.0,-999.0,98,-99.99,,,0.01,Acu-Link.com,2013-01-31 09:31:00,
2013-01-31 04:46:00,55.6,55.0,29.19,South,180,16.1,-999.0,98,-99.99,,,0.02,Acu-Link.com,2013-01-31 09:46:00,
2013-01-31 05:01:00,55.8,55.2,29.17,South,180,16.6,-999.0,98,-99.99,,,0.06,Acu-Link.com,2013-01-31 10:01:00,
2013-01-31 05:16:00,56.1,55.6,29.12,South,180,11.0,-999.0,98,-99.99,,,0.11,Acu-Link.com,2013-01-31 10:16:00,
2013-01-31 05:31:00,55.9,55.4,29.10,South,180,19.7,-999.0,98,-99.99,,,0.28,Acu-Link.com,2013-01-31 10:31:00,
2013-01-31 05:47:00,55.8,55.2,29.11,SSE,157,13.4,-999.0,98,-99.99,,,0.43,Acu-Link.com,2013-01-31 10:47:00,
2013-01-31 06:02:00,56.7,56.1,29.15,ESE,112,14.5,-999.0,98,-99.99,,,0.72,Acu-Link.com,2013-01-31 11:02:00,
2013-01-31 06:17:00,56.3,55.7,29.14,SSE,157,15.0,-999.0,98,-99.99,,,0.85,Acu-Link.com,2013-01-31 11:17:00,
2013-01-31 06:32:00,55.6,55.0,29.13,ESE,112,6.7,-999.0,98,-99.99,,,0.88,Acu-Link.com,2013-01-31 11:32:00,
2013-01-31 06:47:00,54.7,54.1,29.14,SSW,202,7.8,-999.0,98,-99.99,,,0.89,Acu-Link.com,2013-01-31 11:47:00,
2013-01-31 07:03:00,54.0,53.4,29.11,South,180,4.7,-999.0,98,-99.99,,,0.94,Acu-Link.com,2013-01-31 12:03:00,
2013-01-31 07:18:00,53.4,52.9,29.09,SW,225,4.3,-999.0,98,-99.99,,,0.94,Acu-Link.com,2013-01-31 12:18:00,
2013-01-31 07:33:00,50.9,50.4,29.09,South,180,8.9,-999.0,98,-99.99,,,0.96,Acu-Link.com,2013-01-31 12:33:00,
2013-01-31 07:48:00,50.9,50.4,29.08,South,180,8.9,-999.0,98,-99.99,,,0.98,Acu-Link.com,2013-01-31 12:48:00,
2013-01-31 08:03:00,51.6,51.1,29.08,SSW,202,6.3,-999.0,98,-99.99,,,0.98,Acu-Link.com,2013-01-31 13:03:00,
2013-01-31 08:19:00,52.2,51.6,29.07,South,180,11.9,-999.0,98,-99.99,,,0.98,Acu-Link.com,2013-01-31 13:19:00,
2013-01-31 08:34:00,51.6,51.1,29.08,SW,225,10.3,-999.0,98,-99.99,,,0.98,Acu-Link.com,2013-01-31 13:34:00,
2013-01-31 08:49:00,49.5,48.9,29.08,West,270,9.8,-999.0,98,-99.99,,,0.98,Acu-Link.com,2013-01-31 13:49:00,
2013-01-31 09:04:00,48.0,47.5,29.11,WSW,247,6.7,-999.0,98,-99.99,,,0.98,Acu-Link.com,2013-01-31 14:04:00,
2013-01-31 09:21:00,49.1,48.6,29.13,WNW,292,4.7,-999.0,98,-99.99,,,0.98,Acu-Link.com,2013-01-31 14:21:00,
2013-01-31 09:37:00,47.5,46.9,29.15,West,270,9.8,-999.0,98,-99.99,,,0.98,Acu-Link.com,2013-01-31 14:37:00,
2013-01-31 09:52:00,47.5,47.2,29.17,West,270,6.3,-999.0,99,-99.99,,,0.98,Acu-Link.com,2013-01-31 14:52:00,
2013-01-31 10:07:00,47.8,47.6,29.18,SW,225,11.4,-999.0,99,-99.99,,,0.98,Acu-Link.com,2013-01-31 15:07:00,
2013-01-31 10:22:00,47.8,47.6,29.18,SSE,157,11.0,-999.0,99,-99.99,,,0.98,Acu-Link.com,2013-01-31 15:22:00,
2013-01-31 10:38:00,47.7,47.4,29.20,WSW,247,8.9,-999.0,99,-99.99,,,0.98,Acu-Link.com,2013-01-31 15:38:00,
2013-01-31 10:53:00,48.6,48.3,29.23,West,270,13.4,-999.0,99,-99.99,,,0.98,Acu-Link.com,2013-01-31 15:53:00,
2013-01-31 11:08:00,49.5,-4.8,29.23,West,270,19.7,-999.0,10,-99.99,,,0.98,Acu-Link.com,2013-01-31 16:08:00,
2013-01-31 11:23:00,50.4,50.1,29.24,West,270,11.0,-999.0,99,-99.99,,,0.98,Acu-Link.com,2013-01-31 16:23:00,
2013-01-31 11:39:00,51.6,51.3,29.24,West,270,12.5,-999.0,99,-99.99,,,0.98,Acu-Link.com,2013-01-31 16:39:00,
2013-01-31 11:54:00,51.3,51.0,29.25,SW,225,11.4,-999.0,99,-99.99,,,0.98,Acu-Link.com,2013-01-31 16:54:00,
2013-01-31 12:09:00,52.0,51.7,29.26,WNW,292,8.9,-999.0,99,-99.99,,,0.98,Acu-Link.com,2013-01-31 17:09:00,
2013-01-31 12:24:00,50.2,49.9,29.27,NW,315,14.1,-999.0,99,-99.99,,,0.98,Acu-Link.com,2013-01-31 17:24:00,
2013-01-31 12:39:00,51.3,51.0,29.27,West,270,14.5,-999.0,99,-99.99,,,0.98,Acu-Link.com,2013-01-31 17:39:00,
2013-01-31 12:55:00,49.8,49.6,29.30,West,270,16.6,-999.0,99,-99.99,,,0.98,Acu-Link.com,2013-01-31 17:55:00,
2013-01-31 13:10:00,49.1,48.8,29.30,SW,225,14.1,-999.0,99,-99.99,,,0.98,Acu-Link.com,2013-01-31 18:10:00,
2013-01-31 13:25:00,49.1,48.8,29.30,SSW,202,9.8,-999.0,99,-99.99,,,0.98,Acu-Link.com,2013-01-31 18:25:00,
2013-01-31 13:40:00,50.2,49.9,29.32,WNW,292,15.4,-999.0,99,-99.99,,,0.98,Acu-Link.com,2013-01-31 18:40:00,
2013-01-31 13:55:00,48.9,48.7,29.33,SSW,202,13.0,-999.0,99,-99.99,,,0.98,Acu-Link.com,2013-01-31 18:55:00,
2013-01-31 14:11:00,47.1,46.9,29.34,WSW,247,11.0,-999.0,99,-99.99,,,0.98,Acu-Link.com,2013-01-31 19:11:00,
2013-01-31 14:26:00,47.5,47.2,29.35,NNE,22,7.8,-999.0,99,-99.99,,,0.98,Acu-Link.com,2013-01-31 19:26:00,
2013-01-31 14:41:00,48.4,48.1,29.36,West,270,8.3,-999.0,99,-99.99,,,0.98,Acu-Link.com,2013-01-31 19:41:00,
2013-01-31 14:56:00,47.3,47.0,29.37,WNW,292,14.1,-999.0,99,-99.99,,,0.98,Acu-Link.com,2013-01-31 19:56:00,
2013-01-31 15:11:00,45.9,45.6,29.39,West,270,14.5,-999.0,99,-99.99,,,0.99,Acu-Link.com,2013-01-31 20:11:00,
2013-01-31 15:27:00,44.4,44.2,29.40,West,270,15.0,-999.0,99,-99.99,,,1.00,Acu-Link.com,2013-01-31 20:27:00,
2013-01-31 15:42:00,44.2,44.0,29.41,West,270,5.8,-999.0,99,-99.99,,,1.00,Acu-Link.com,2013-01-31 20:42:00,
2013-01-31 15:57:00,43.2,42.9,29.41,SSE,157,5.8,-999.0,99,-99.99,,,1.00,Acu-Link.com,2013-01-31 20:57:00,
2013-01-31 16:12:00,42.8,42.5,29.41,SW,225,5.8,-999.0,99,-99.99,,,1.00,Acu-Link.com,2013-01-31 21:12:00,
2013-01-31 16:28:00,42.3,42.0,29.42,West,270,7.8,-999.0,99,-99.99,,,1.00,Acu-Link.com,2013-01-31 21:28:00,
2013-01-31 16:43:00,42.1,41.8,29.43,SSE,157,8.3,-999.0,99,-99.99,,,1.00,Acu-Link.com,2013-01-31 21:43:00,
2013-01-31 16:58:00,41.0,40.7,29.44,ESE,112,7.8,-999.0,99,-99.99,,,1.00,Acu-Link.com,2013-01-31 21:58:00,
2013-01-31 17:13:00,40.6,40.4,29.45,South,180,8.9,-999.0,99,-99.99,,,1.00,Acu-Link.com,2013-01-31 22:13:00,
2013-01-31 17:28:00,40.6,40.4,29.47,SW,225,8.9,-999.0,99,-99.99,,,1.00,Acu-Link.com,2013-01-31 22:28:00,
2013-01-31 17:44:00,40.3,40.0,29.48,West,270,11.0,-999.0,99,-99.99,,,1.00,Acu-Link.com,2013-01-31 22:44:00,
2013-01-31 17:59:00,40.5,40.2,29.49,WNW,292,9.8,-999.0,99,-99.99,,,1.00,Acu-Link.com,2013-01-31 22:59:00,
2013-01-31 18:14:00,40.3,40.0,29.50,West,270,8.3,-999.0,99,-99.99,,,1.00,Acu-Link.com,2013-01-31 23:14:00,
2013-01-31 18:29:00,40.3,40.0,29.52,West,270,14.5,-999.0,99,-99.99,,,1.00,Acu-Link.com,2013-01-31 23:29:00,
2013-01-31 18:44:00,39.6,39.3,29.53,WSW,247,13.0,-999.0,99,-99.99,,,1.00,Acu-Link.com,2013-01-31 23:44:00,
2013-01-31 19:00:00,38.8,38.6,29.54,SW,225,9.8,-999.0,99,-99.99,,,1.00,Acu-Link.com,2013-02-01 00:00:00,
2013-01-31 19:15:00,38.5,38.2,29.56,West,270,14.5,-999.0,99,-99.99,,,1.00,Acu-Link.com,2013-02-01 00:15:00,
2013-01-31 19:30:00,37.6,37.3,29.57,SW,225,15.0,-999.0,99,-99.99,,,1.00,Acu-Link.com,2013-02-01 00:30:00,
2013-01-31 19:45:00,36.9,36.6,29.59,West,270,14.5,-999.0,99,-99.99,,,1.00,Acu-Link.com,2013-02-01 00:45:00,
2013-01-31 20:00:00,36.7,36.4,29.59,West,270,15.4,-999.0,99,-99.99,,,1.00,Acu-Link.com,2013-02-01 01:00:00,
2013-01-31 20:16:00,36.5,36.2,29.60,West,270,8.3,-999.0,99,-99.99,,,1.00,Acu-Link.com,2013-02-01 01:16:00,
2013-01-31 20:31:00,36.0,35.7,29.60,West,270,16.6,-999.0,99,-99.99,,,1.00,Acu-Link.com,2013-02-01 01:31:00,
2013-01-31 20:46:00,35.1,34.8,29.61,WSW,247,8.3,-999.0,99,-99.99,,,1.00,Acu-Link.com,2013-02-01 01:46:00,
2013-01-31 21:01:00,34.9,34.6,29.62,SW,225,9.4,-999.0,99,-99.99,,,1.00,Acu-Link.com,2013-02-01 02:01:00,
2013-01-31 21:17:00,34.5,34.3,29.63,West,270,9.4,-999.0,99,-99.99,,,1.00,Acu-Link.com,2013-02-01 02:17:00,
2013-01-31 21:32:00,33.8,33.5,29.64,WSW,247,11.4,-999.0,99,-99.99,,,1.00,Acu-Link.com,2013-02-01 02:32:00,
2013-01-31 21:47:00,33.4,33.2,29.65,SSW,202,17.0,-999.0,99,-99.99,,,1.00,Acu-Link.com,2013-02-01 02:47:00,
2013-01-31 22:02:00,33.1,32.8,29.65,WSW,247,8.9,-999.0,99,-99.99,,,1.00,Acu-Link.com,2013-02-01 03:02:00,
2013-01-31 22:17:00,32.5,32.3,29.66,West,270,6.3,-999.0,99,-99.99,,,1.00,Acu-Link.com,2013-02-01 03:17:00,
2013-01-31 22:33:00,32.4,32.1,29.66,SW,225,8.9,-999.0,99,-99.99,,,1.00,Acu-Link.com,2013-02-01 03:33:00,
2013-01-31 22:48:00,31.8,31.6,29.66,West,270,13.4,-999.0,99,-99.99,,,1.00,Acu-Link.com,2013-02-01 03:48:00,
2013-01-31 23:03:00,31.6,31.4,29.66,WNW,292,11.4,-999.0,99,-99.99,,,1.00,Acu-Link.com,2013-02-01 04:03:00,
2013-01-31 23:18:00,31.5,31.2,29.67,West,270,13.0,-999.0,99,-99.99,,,1.00,Acu-Link.com,2013-02-01 04:18:00,
2013-01-31 23:33:00,30.9,30.7,29.66,West,270,10.3,-999.0,99,-99.99,,,1.00,Acu-Link.com,2013-02-01 04:33:00,
2013-01-31 23:49:00,30.9,30.7,29.67,SW,225,14.5,-999.0,99,-99.99,,,1.00,Acu-Link.com,2013-02-01 04:49:00,